Location: Gouy
(50.0008°N, 3.2556°E)
Time: 14:27:57
(UTC+00:00)

Cosmos 2151 Rocket - Pass Details

Date: 23 May 2024
Orbit: 614 x 639 km, 82.5° (Epoch: 18 June)

Event Time Altitude Azimuth Distance (km) Brightness Sun altitude
Rises 02:33:43 0° 350° (N) 2,946 7.7 -10.0°
Reaches altitude 10° 02:35:58 10° 351° (N) 2,029 6.8 -9.7°
Maximum altitude 02:40:29 83° 79° (E) 641 3.7 -9.3°
Drops below altitude 10° 02:44:55 10° 169° (S) 1,996 5.8 -8.8°
Sets 02:47:08 0° 170° (S) 2,894 6.6 -8.6°
